QPF
0.02 0.03 0.02 0.01 0.01 0.01 0.01 0.02 0.01 0.01 0.01 0.02 0.01 0.01 0.00 0.00 0.00 0.00 0.00 0.00 0.01 0.01 0.01 0.02 0.04 0.05 0.06 0.05 0.04 0.03 0.04 0.05 0.05 0.06 0.08 0.08 0.08 0.08 0.04 0.01 0.01 0.01 0.00 0.01
0.01 0.01 0.01 0.01 0.02 0.01 0.01 0.02 0.01 0.01 0.00 0.02 0.02 0.01 0.01 0.00 0.00 0.00 0.00 0.01 0.01 0.01 0.02 0.02 0.04 0.06 0.07 0.07 0.04 0.03 0.03 0.05 0.03 0.03 0.05 0.08 0.08 0.09 0.06 0.03 0.01 0.01 0.01 0.01
0.01 0.01 0.00 0.01 0.02 0.02 0.02 0.02 0.01 0.02 0.01 0.01 0.02 0.02 0.01 0.01 0.00 0.00 0.00 0.01 0.01 0.01 0.02 0.02 0.03 0.06 0.08 0.07 0.05 0.03 0.03 0.05 0.03 0.03 0.04 0.07 0.08 0.08 0.08 0.06 0.03 0.01 0.01 0.01
0.01 0.01 0.01 0.01 0.01 0.02 0.01 0.01 0.01 0.02 0.02 0.03 0.03 0.03 0.02 0.01 0.00 0.00 0.00 0.01 0.01 0.01 0.01 0.02 0.03 0.04 0.08 0.07 0.05 0.04 0.04 0.05 0.04 0.03 0.03 0.04 0.05 0.04 0.05 0.06 0.06 0.03 0.02 0.01
0.02 0.02 0.01 0.01 0.01 0.02 0.02 0.02 0.01 0.01 0.04 0.04 0.03 0.03 0.02 0.01 0.01 0.01 0.01 0.01 0.01 0.01 0.02 0.01 0.02 0.03 0.06 0.08 0.06 0.05 0.04 0.04 0.04 0.03 0.03 0.03 0.03 0.03 0.04 0.05 0.06 0.05 0.03 0.01
0.01 0.01 0.01 0.01 0.01 0.02 0.02 0.02 0.03 0.03 0.05 0.06 0.03 0.03 0.03 0.03 0.03 0.02 0.02 0.01 0.01 0.01 0.02 0.02 0.02 0.03 0.04 0.08 0.08 0.07 0.05 0.04 0.04 0.03 0.02 0.02 0.02 0.03 0.04 0.04 0.05 0.04 0.04 0.02
0.01 0.01 0.01 0.01 0.01 0.01 0.02 0.03 0.05 0.06 0.07 0.05 0.03 0.03 0.04 0.04 0.02 0.02 0.02 0.02 0.02 0.02 0.02 0.02 0.02 0.03 0.04 0.05 0.07 0.08 0.06 0.03 0.03 0.03 0.02 0.02 0.02 0.02 0.03 0.04 0.03 0.03 0.03 0.02
0.01 0.01 0.01 0.02 0.02 0.03 0.03 0.03 0.03 0.04 0.04 0.03 0.03 0.04 0.04 0.03 0.02 0.02 0.02 0.02 0.02 0.02 0.01 0.02 0.02 0.02 0.03 0.04 0.05 0.06 0.06 0.03 0.02 0.03 0.02 0.02 0.02 0.02 0.02 0.02 0.02 0.02 0.03 0.02
0.01 0.01 0.00 0.01 0.01 0.02 0.02 0.03 0.03 0.04 0.03 0.02 0.04 0.04 0.03 0.02 0.01 0.01 0.01 0.01 0.01 0.01 0.01 0.02 0.02 0.01 0.02 0.03 0.05 0.05 0.05 0.03 0.02 0.02 0.02 0.03 0.03 0.02 0.02 0.02 0.02 0.02 0.02 0.02
0.02 0.01 0.00 0.00 0.00 0.01 0.02 0.03 0.03 0.04 0.04 0.03 0.03 0.03 0.03 0.02 0.02 0.01 0.01 0.01 0.01 0.01 0.01 0.01 0.01 0.02 0.02 0.03 0.05 0.05 0.05 0.04 0.03 0.02 0.02 0.03 0.03 0.02 0.02 0.02 0.02 0.02 0.01 0.01
0.02 0.02 0.00 0.00 0.01 0.01 0.02 0.03 0.03 0.03 0.04 0.04 0.03 0.04 0.04 0.03 0.02 0.02 0.02 0.02 0.01 0.01 0.01 0.01 0.01 0.02 0.02 0.02 0.03 0.05 0.06 0.05 0.04 0.03 0.02 0.03 0.03 0.03 0.02 0.02 0.02 0.02 0.01 0.01
0.03 0.02 0.01 0.01 0.01 0.01 0.01 0.03 0.03 0.04 0.03 0.03 0.03 0.04 0.03 0.02 0.02 0.02 0.02 0.02 0.01 0.01 0.01 0.01 0.01 0.02 0.02 0.02 0.02 0.04 0.06 0.05 0.05 0.03 0.03 0.03 0.03 0.02 0.02 0.02 0.01 0.01 0.01 0.01
0.05 0.05 0.02 0.01 0.01 0.01 0.01 0.01 0.02 0.03 0.03 0.02 0.03 0.04 0.03 0.02 0.02 0.02 0.02 0.02 0.01 0.01 0.01 0.01 0.01 0.01 0.02 0.02 0.02 0.02 0.03 0.05 0.05 0.04 0.03 0.03 0.03 0.02 0.02 0.01 0.01 0.01 0.01 0.01
0.05 0.04 0.02 0.02 0.02 0.02 0.01 0.01 0.01 0.02 0.02 0.02 0.02 0.02 0.02 0.03 0.03 0.02 0.02 0.02 0.02 0.02 0.01 0.01 0.01 0.01 0.01 0.02 0.02 0.02 0.01 0.03 0.05 0.05 0.04 0.03 0.03 0.02 0.02 0.01 0.01 0.01 0.01 0.01
0.02 0.02 0.01 0.02 0.02 0.01 0.02 0.02 0.01 0.02 0.02 0.03 0.03 0.02 0.03 0.04 0.04 0.04 0.03 0.03 0.03 0.02 0.02 0.02 0.02 0.02 0.02 0.02 0.02 0.03 0.02 0.02 0.03 0.04 0.04 0.04 0.04 0.04 0.03 0.02 0.01 0.01 0.01 0.01
0.01 0.02 0.01 0.02 0.01 0.01 0.01 0.01 0.01 0.01 0.02 0.02 0.02 0.02 0.03 0.03 0.03 0.03 0.03 0.03 0.03 0.03 0.03 0.03 0.03 0.03 0.02 0.02 0.02 0.03 0.03 0.02 0.02 0.03 0.03 0.04 0.04 0.04 0.04 0.02 0.01 0.01 0.01 0.01
0.01 0.01 0.02 0.01 0.01 0.01 0.02 0.03 0.03 0.03 0.03 0.03 0.03 0.04 0.03 0.03 0.04 0.04 0.04 0.04 0.04 0.04 0.04 0.03 0.03 0.03 0.03 0.03 0.03 0.03 0.03 0.03 0.03 0.03 0.03 0.04 0.03 0.03 0.03 0.02 0.02 0.01 0.01 0.01
0.01 0.02 0.03 0.02 0.02 0.03 0.03 0.02 0.03 0.03 0.03 0.04 0.04 0.04 0.04 0.04 0.04 0.05 0.05 0.05 0.05 0.04 0.04 0.03 0.03 0.03 0.03 0.03 0.03 0.03 0.03 0.04 0.03 0.03 0.03 0.04 0.04 0.03 0.02 0.02 0.02 0.01 0.01 0.01
0.01 0.01 0.02 0.03 0.02 0.02 0.01 0.01 0.03 0.03 0.03 0.04 0.04 0.04 0.03 0.03 0.03 0.04 0.06 0.06 0.05 0.05 0.05 0.04 0.04 0.03 0.03 0.03 0.04 0.04 0.04 0.04 0.04 0.04 0.03 0.04 0.04 0.04 0.03 0.02 0.01 0.01 0.01 0.01
0.00 0.01 0.02 0.03 0.02 0.01 0.01 0.01 0.01 0.03 0.03 0.03 0.04 0.04 0.04 0.03 0.04 0.06 0.06 0.06 0.04 0.04 0.05 0.05 0.04 0.04 0.03 0.04 0.04 0.04 0.04 0.04 0.04 0.04 0.03 0.04 0.04 0.04 0.03 0.03 0.02 0.02 0.02 0.02
0.01 0.01 0.01 0.01 0.01 0.01 0.02 0.01 0.01 0.02 0.03 0.03 0.03 0.04 0.04 0.05 0.07 0.08 0.07 0.06 0.04 0.04 0.05 0.05 0.05 0.04 0.05 0.05 0.05 0.04 0.03 0.04 0.04 0.03 0.02 0.03 0.03 0.03 0.03 0.03 0.02 0.03 0.03 0.02
0.01 0.01 0.00 0.01 0.01 0.01 0.01 0.01 0.02 0.03 0.03 0.03 0.03 0.03 0.04 0.05 0.06 0.07 0.05 0.04 0.04 0.04 0.05 0.05 0.05 0.05 0.05 0.06 0.05 0.04 0.04 0.04 0.03 0.03 0.02 0.02 0.02 0.02 0.02 0.02 0.02 0.02 0.03 0.03
0.01 0.01 0.01 0.01 0.02 0.02 0.02 0.03 0.03 0.03 0.03 0.03 0.03 0.04 0.04 0.05 0.06 0.06 0.04 0.04 0.04 0.04 0.05 0.05 0.05 0.04 0.04 0.05 0.05 0.04 0.04 0.03 0.03 0.02 0.02 0.02 0.02 0.02 0.02 0.02 0.02 0.02 0.02 0.02
0.01 0.01 0.01 0.01 0.02 0.02 0.02 0.02 0.02 0.02 0.03 0.03 0.04 0.04 0.04 0.05 0.06 0.06 0.05 0.04 0.04 0.04 0.04 0.05 0.05 0.05 0.05 0.04 0.04 0.04 0.04 0.04 0.03 0.03 0.03 0.03 0.02 0.02 0.03 0.02 0.02 0.02 0.02 0.02
0.01 0.01 0.01 0.01 0.01 0.01 0.01 0.02 0.02 0.02 0.02 0.02 0.03 0.03 0.04 0.04 0.05 0.05 0.05 0.05 0.04 0.04 0.04 0.04 0.04 0.05 0.05 0.05 0.04 0.04 0.04 0.04 0.04 0.04 0.04 0.04 0.03 0.02 0.03 0.03 0.03 0.03 0.03 0.02
0.02 0.02 0.01 0.01 0.01 0.02 0.02 0.02 0.01 0.01 0.01 0.01 0.02 0.02 0.03 0.03 0.04 0.04 0.04 0.05 0.04 0.04 0.03 0.03 0.03 0.03 0.04 0.04 0.04 0.05 0.05 0.04 0.04 0.04 0.04 0.04 0.03 0.02 0.02 0.03 0.03 0.03 0.03 0.03
MSLP
1006.54 1005.44 1004.48 1003.70 1003.11 1002.74 1002.57 1002.59 1002.77 1003.06 1003.39 1003.72 1004.00 1004.19 1004.28 1004.28 1004.23 1004.19 1004.20 1004.32 1004.59 1005.02 1005.61 1006.31 1007.08 1007.88 1008.65 1009.38 1010.04 1010.65 1011.23 1011.80 1012.37 1012.97 1013.58 1014.19 1014.79 1015.34 1015.83 1016.25 1016.62 1016.94 1017.23 1017.53
1007.17 1006.10 1005.11 1004.22 1003.47 1002.87 1002.45 1002.24 1002.22 1002.38 1002.67 1003.05 1003.44 1003.80 1004.08 1004.27 1004.37 1004.42 1004.45 1004.53 1004.70 1005.00 1005.43 1006.00 1006.66 1007.39 1008.14 1008.88 1009.59 1010.25 1010.88 1011.48 1012.08 1012.68 1013.28 1013.89 1014.48 1015.05 1015.58 1016.06 1016.50 1016.89 1017.26 1017.61
1008.26 1007.25 1006.23 1005.21 1004.23 1003.36 1002.63 1002.12 1001.86 1001.86 1002.10 1002.52 1003.07 1003.64 1004.18 1004.61 1004.91 1005.07 1005.13 1005.15 1005.17 1005.26 1005.47 1005.81 1006.29 1006.88 1007.55 1008.27 1008.99 1009.71 1010.40 1011.06 1011.70 1012.32 1012.94 1013.55 1014.16 1014.75 1015.31 1015.85 1016.35 1016.82 1017.25 1017.65
1009.71 1008.76 1007.69 1006.53 1005.31 1004.13 1003.06 1002.23 1001.71 1001.55 1001.74 1002.24 1002.96 1003.80 1004.62 1005.34 1005.86 1006.16 1006.25 1006.17 1006.01 1005.85 1005.76 1005.81 1006.02 1006.41 1006.94 1007.59 1008.31 1009.06 1009.81 1010.54 1011.24 1011.91 1012.56 1013.19 1013.82 1014.43 1015.03 1015.61 1016.17 1016.69 1017.17 1017.61
1011.35 1010.44 1009.33 1008.01 1006.56 1005.07 1003.68 1002.54 1001.78 1001.47 1001.64 1002.23 1003.16 1004.27 1005.41 1006.41 1007.17 1007.61 1007.72 1007.55 1007.18 1006.73 1006.31 1006.02 1005.92 1006.05 1006.40 1006.94 1007.62 1008.39 1009.18 1009.97 1010.73 1011.45 1012.14 1012.80 1013.45 1014.09 1014.72 1015.34 1015.94 1016.50 1017.02 1017.49
1013.01 1012.13 1010.95 1009.49 1007.82 1006.06 1004.40 1003.01 1002.06 1001.66 1001.83 1002.54 1003.67 1005.05 1006.48 1007.76 1008.74 1009.31 1009.44 1009.17 1008.61 1007.87 1007.11 1006.47 1006.04 1005.89 1006.02 1006.42 1007.01 1007.75 1008.57 1009.40 1010.20 1010.97 1011.70 1012.39 1013.07 1013.73 1014.38 1015.03 1015.65 1016.24 1016.79 1017.28
1014.54 1013.65 1012.41 1010.82 1008.99 1007.05 1005.19 1003.64 1002.58 1002.13 1002.34 1003.17 1004.49 1006.10 1007.79 1009.30 1010.46 1011.13 1011.28 1010.93 1010.18 1009.19 1008.13 1007.17 1006.43 1005.99 1005.89 1006.10 1006.59 1007.26 1008.05 1008.88 1009.71 1010.50 1011.25 1011.97 1012.66 1013.34 1014.02 1014.68 1015.32 1015.94 1016.50 1017.01
1015.85 1014.92 1013.62 1011.96 1010.03 1008.00 1006.06 1004.45 1003.36 1002.94 1003.22 1004.16 1005.63 1007.41 1009.27 1010.95 1012.22 1012.97 1013.11 1012.69 1011.81 1010.63 1009.33 1008.10 1007.09 1006.40 1006.07 1006.09 1006.42 1006.98 1007.70 1008.48 1009.28 1010.07 1010.82 1011.55 1012.25 1012.94 1013.63 1014.31 1014.97 1015.60 1016.19 1016.71
1016.90 1015.93 1014.59 1012.91 1010.98 1008.96 1007.06 1005.50 1004.48 1004.13 1004.49 1005.52 1007.08 1008.95 1010.89 1012.63 1013.95 1014.71 1014.84 1014.37 1013.41 1012.10 1010.65 1009.24 1008.03 1007.13 1006.59 1006.42 1006.57 1006.98 1007.56 1008.25 1008.98 1009.71 1010.43 1011.14 1011.85 1012.55 1013.26 1013.96 1014.64 1015.29 1015.89 1016.44
1017.72 1016.71 1015.38 1013.75 1011.91 1010.02 1008.27 1006.87 1005.99 1005.76 1006.21 1007.29 1008.86 1010.72 1012.62 1014.32 1015.60 1016.32 1016.42 1015.92 1014.92 1013.57 1012.05 1010.54 1009.22 1008.17 1007.46 1007.10 1007.05 1007.27 1007.68 1008.21 1008.81 1009.45 1010.12 1010.79 1011.49 1012.20 1012.92 1013.65 1014.36 1015.03 1015.66 1016.23
1018.40 1017.38 1016.10 1014.59 1012.94 1011.28 1009.78 1008.62 1007.96 1007.87 1008.39 1009.47 1010.97 1012.70 1014.45 1016.00 1017.14 1017.76 1017.80 1017.28 1016.30 1014.97 1013.48 1011.97 1010.60 1009.47 1008.63 1008.10 1007.85 1007.85 1008.04 1008.38 1008.81 1009.32 1009.89 1010.52 1011.19 1011.91 1012.66 1013.42 1014.17 1014.88 1015.53 1016.12
1019.03 1018.03 1016.86 1015.54 1014.15 1012.80 1011.63 1010.76 1010.33 1010.40 1010.97 1011.99 1013.34 1014.86 1016.37 1017.66 1018.59 1019.06 1019.01 1018.48 1017.54 1016.30 1014.89 1013.45 1012.12 1010.96 1010.02 1009.34 1008.89 1008.66 1008.62 1008.72 1008.96 1009.31 1009.78 1010.34 1010.99 1011.72 1012.50 1013.30 1014.08 1014.83 1015.52 1016.13
1019.68 1018.75 1017.73 1016.65 1015.57 1014.57 1013.76 1013.22 1013.04 1013.24 1013.83 1014.75 1015.90 1017.13 1018.31 1019.29 1019.96 1020.23 1020.08 1019.53 1018.65 1017.52 1016.25 1014.93 1013.67 1012.53 1011.54 1010.73 1010.10 1009.64 1009.35 1009.22 1009.25 1009.43 1009.77 1010.26 1010.89 1011.62 1012.43 1013.27 1014.10 1014.89 1015.61 1016.24
1020.40 1019.57 1018.74 1017.92 1017.17 1016.53 1016.07 1015.85 1015.90 1016.23 1016.82 1017.60 1018.50 1019.42 1020.24 1020.87 1021.23 1021.29 1021.02 1020.46 1019.64 1018.64 1017.52 1016.35 1015.20 1014.10 1013.09 1012.18 1011.38 1010.71 1010.20 1009.84 1009.66 1009.68 1009.89 1010.30 1010.89 1011.63 1012.46 1013.34 1014.21 1015.04 1015.78 1016.43
1021.19 1020.48 1019.84 1019.28 1018.84 1018.55 1018.42 1018.49 1018.74 1019.17 1019.72 1020.36 1021.01 1021.60 1022.07 1022.35 1022.42 1022.25 1021.87 1021.28 1020.52 1019.65 1018.68 1017.67 1016.63 1015.60 1014.58 1013.60 1012.67 1011.83 1011.11 1010.55 1010.18 1010.04 1010.13 1010.46 1011.01 1011.74 1012.58 1013.48 1014.38 1015.23 1015.99 1016.65
1022.01 1021.44 1020.98 1020.65 1020.48 1020.48 1020.64 1020.94 1021.36 1021.85 1022.37 1022.86 1023.28 1023.57 1023.72 1023.69 1023.49 1023.14 1022.64 1022.02 1021.32 1020.56 1019.73 1018.86 1017.94 1016.98 1015.98 1014.95 1013.93 1012.95 1012.06 1011.33 1010.81 1010.52 1010.51 1010.75 1011.25 1011.94 1012.77 1013.67 1014.58 1015.44 1016.21 1016.87
1022.84 1022.39 1022.08 1021.95 1021.99 1022.21 1022.58 1023.06 1023.60 1024.13 1024.61 1024.98 1025.20 1025.26 1025.15 1024.87 1024.46 1023.94 1023.35 1022.72 1022.06 1021.38 1020.67 1019.92 1019.10 1018.21 1017.24 1016.20 1015.11 1014.04 1013.05 1012.19 1011.54 1011.14 1011.01 1011.18 1011.59 1012.23 1013.02 1013.90 1014.78 1015.63 1016.40 1017.06
1023.66 1023.30 1023.11 1023.11 1023.31 1023.68 1024.18 1024.77 1025.38 1025.93 1026.37 1026.65 1026.74 1026.63 1026.33 1025.88 1025.31 1024.69 1024.03 1023.39 1022.76 1022.14 1021.52 1020.86 1020.12 1019.30 1018.36 1017.33 1016.23 1015.12 1014.06 1013.12 1012.38 1011.88 1011.66 1011.73 1012.06 1012.61 1013.33 1014.14 1014.97 1015.78 1016.52 1017.17
1024.44 1024.16 1024.05 1024.14 1024.42 1024.87 1025.45 1026.09 1026.73 1027.28 1027.69 1027.90 1027.91 1027.69 1027.29 1026.73 1026.08 1025.39 1024.70 1024.04 1023.43 1022.85 1022.29 1021.69 1021.02 1020.25 1019.37 1018.37 1017.29 1016.18 1015.09 1014.12 1013.32 1012.75 1012.44 1012.40 1012.62 1013.07 1013.68 1014.39 1015.14 1015.89 1016.59 1017.22
1025.22 1025.00 1024.94 1025.07 1025.39 1025.86 1026.45 1027.10 1027.73 1028.26 1028.64 1028.82 1028.78 1028.53 1028.08 1027.48 1026.79 1026.07 1025.36 1024.70 1024.10 1023.54 1023.00 1022.45 1021.82 1021.11 1020.27 1019.33 1018.29 1017.21 1016.15 1015.17 1014.34 1013.71 1013.32 1013.18 1013.27 1013.58 1014.06 1014.65 1015.30 1015.97 1016.61 1017.21
1026.01 1025.85 1025.83 1025.97 1026.29 1026.74 1027.31 1027.92 1028.51 1029.01 1029.36 1029.52 1029.47 1029.20 1028.75 1028.16 1027.47 1026.75 1026.05 1025.38 1024.78 1024.22 1023.69 1023.15 1022.56 1021.88 1021.10 1020.22 1019.25 1018.22 1017.20 1016.24 1015.41 1014.74 1014.27 1014.02 1013.99 1014.15 1014.48 1014.93 1015.46 1016.03 1016.60 1017.17
1026.84 1026.74 1026.75 1026.90 1027.19 1027.61 1028.12 1028.67 1029.20 1029.65 1029.97 1030.11 1030.06 1029.81 1029.38 1028.81 1028.15 1027.45 1026.76 1026.09 1025.48 1024.91 1024.37 1023.83 1023.25 1022.60 1021.88 1021.06 1020.16 1019.21 1018.24 1017.32 1016.49 1015.79 1015.25 1014.90 1014.74 1014.76 1014.93 1015.24 1015.64 1016.10 1016.60 1017.12
1027.72 1027.68 1027.73 1027.89 1028.15 1028.52 1028.96 1029.43 1029.89 1030.28 1030.55 1030.68 1030.63 1030.40 1030.00 1029.47 1028.85 1028.18 1027.50 1026.83 1026.20 1025.62 1025.06 1024.50 1023.93 1023.31 1022.62 1021.86 1021.03 1020.15 1019.25 1018.37 1017.55 1016.82 1016.23 1015.79 1015.50 1015.38 1015.41 1015.58 1015.85 1016.21 1016.64 1017.10
1028.61 1028.65 1028.75 1028.92 1029.17 1029.48 1029.85 1030.24 1030.62 1030.94 1031.17 1031.26 1031.21 1031.00 1030.64 1030.15 1029.57 1028.93 1028.27 1027.60 1026.97 1026.36 1025.78 1025.20 1024.63 1024.02 1023.36 1022.65 1021.88 1021.06 1020.22 1019.37 1018.57 1017.82 1017.18 1016.66 1016.27 1016.03 1015.93 1015.97 1016.13 1016.40 1016.75 1017.16
1029.49 1029.61 1029.76 1029.96 1030.19 1030.47 1030.77 1031.09 1031.38 1031.63 1031.80 1031.87 1031.81 1031.61 1031.29 1030.84 1030.30 1029.70 1029.06 1028.41 1027.76 1027.14 1026.54 1025.95 1025.37 1024.76 1024.13 1023.45 1022.72 1021.95 1021.14 1020.33 1019.53 1018.77 1018.09 1017.51 1017.04 1016.70 1016.50 1016.44 1016.50 1016.69 1016.97 1017.33
1030.29 1030.49 1030.70 1030.92 1031.15 1031.40 1031.65 1031.90 1032.13 1032.31 1032.43 1032.46 1032.39 1032.21 1031.92 1031.51 1031.02 1030.46 1029.86 1029.23 1028.60 1027.97 1027.36 1026.76 1026.16 1025.56 1024.93 1024.26 1023.56 1022.81 1022.04 1021.24 1020.45 1019.68 1018.97 1018.34 1017.81 1017.40 1017.13 1016.99 1016.98 1017.10 1017.32 1017.63
Thickness
5493 5494 5495 5498 5499 5504 5506 5508 5514 5524 5526 5528 5539 5548 5554 5559 5563 5569 5574 5579 5584 5588 5592 5595 5598 5602 5606 5609 5611 5614 5616 5618 5620 5622 5624 5625 5625 5625 5627 5628 5628 5629 5629 5630
5480 5479 5482 5481 5481 5484 5489 5494 5502 5508 5512 5516 5526 5532 5540 5546 5551 5556 5562 5568 5573 5576 5580 5584 5587 5590 5595 5599 5602 5604 5606 5609 5611 5614 5617 5618 5617 5617 5619 5620 5620 5621 5622 5623
5465 5465 5465 5465 5467 5471 5478 5482 5487 5490 5497 5505 5509 5523 5532 5536 5539 5543 5549 5555 5560 5563 5568 5572 5576 5580 5583 5587 5591 5595 5598 5600 5602 5605 5607 5607 5608 5608 5609 5611 5612 5613 5614 5614
5453 5452 5452 5455 5457 5457 5467 5474 5472 5474 5480 5495 5500 5514 5526 5527 5527 5531 5535 5541 5547 5551 5555 5559 5565 5569 5573 5576 5579 5584 5587 5590 5593 5595 5598 5601 5602 5603 5604 5604 5604 5604 5605 5606
5442 5440 5441 5444 5446 5446 5454 5457 5460 5465 5469 5475 5486 5493 5512 5512 5513 5518 5521 5526 5531 5537 5542 5546 5551 5556 5561 5565 5568 5573 5576 5580 5583 5586 5589 5592 5593 5594 5595 5595 5596 5596 5596 5598
5431 5431 5431 5434 5437 5437 5440 5446 5454 5458 5459 5463 5482 5484 5498 5495 5495 5501 5506 5511 5515 5521 5527 5533 5538 5542 5548 5554 5558 5562 5566 5569 5573 5576 5580 5583 5585 5586 5586 5587 5588 5588 5589 5589
5421 5423 5421 5423 5427 5430 5431 5437 5447 5449 5452 5466 5474 5471 5474 5469 5473 5479 5485 5492 5499 5505 5511 5518 5524 5529 5535 5540 5546 5552 5556 5560 5563 5566 5570 5573 5576 5577 5579 5579 5579 5580 5581 5582
5405 5414 5411 5410 5411 5413 5418 5424 5431 5440 5453 5462 5457 5460 5456 5452 5456 5463 5469 5475 5481 5489 5497 5503 5509 5515 5522 5527 5533 5539 5544 5549 5553 5557 5560 5563 5566 5568 5569 5570 5571 5572 5573 5573
5390 5399 5400 5398 5398 5402 5405 5411 5413 5421 5437 5441 5447 5444 5440 5439 5443 5449 5455 5461 5466 5474 5481 5488 5495 5502 5509 5515 5520 5525 5531 5537 5542 5546 5549 5552 5556 5558 5559 5560 5561 5562 5563 5563
5371 5377 5389 5388 5390 5391 5392 5395 5399 5409 5423 5434 5439 5439 5436 5426 5428 5433 5439 5445 5452 5459 5467 5474 5481 5489 5495 5502 5507 5512 5519 5524 5529 5534 5538 5541 5544 5547 5549 5550 5551 5553 5553 5554
5359 5363 5376 5378 5374 5374 5376 5379 5383 5396 5405 5420 5427 5424 5408 5408 5411 5414 5421 5429 5436 5443 5452 5459 5467 5475 5482 5488 5495 5501 5506 5512 5516 5520 5525 5529 5532 5535 5538 5539 5541 5542 5543 5543
5350 5354 5362 5365 5363 5361 5362 5363 5367 5377 5385 5396 5407 5402 5392 5391 5396 5401 5407 5415 5421 5428 5435 5444 5453 5462 5468 5475 5482 5488 5493 5498 5503 5508 5512 5516 5520 5523 5526 5529 5530 5531 5533 5534
5338 5338 5350 5360 5355 5350 5348 5348 5350 5356 5368 5378 5388 5388 5380 5379 5383 5388 5393 5398 5405 5412 5420 5429 5438 5448 5455 5462 5469 5475 5481 5486 5490 5495 5500 5504 5508 5512 5515 5517 5519 5521 5522 5523
5331 5328 5332 5340 5342 5337 5335 5338 5342 5346 5354 5361 5365 5368 5365 5365 5368 5371 5376 5382 5390 5396 5404 5413 5423 5433 5441 5448 5456 5462 5468 5473 5478 5482 5487 5492 5495 5499 5502 5505 5507 5509 5511 5513
5321 5322 5322 5324 5325 5327 5327 5328 5330 5331 5338 5343 5348 5347 5348 5347 5349 5354 5361 5368 5376 5383 5390 5399 5408 5417 5426 5434 5441 5448 5454 5460 5465 5470 5474 5479 5482 5486 5490 5493 5495 5497 5499 5501
5309 5309 5311 5316 5320 5320 5317 5315 5318 5319 5322 5327 5332 5334 5331 5333 5337 5343 5348 5354 5361 5368 5375 5384 5393 5403 5411 5420 5428 5435 5441 5447 5452 5457 5461 5465 5470 5473 5477 5480 5482 5484 5487 5489
5302 5300 5307 5317 5314 5311 5309 5301 5301 5303 5304 5309 5316 5316 5316 5321 5326 5329 5334 5340 5346 5354 5362 5371 5380 5389 5398 5406 5414 5422 5428 5433 5439 5444 5449 5453 5457 5461 5464 5466 5469 5472 5474 5477
5290 5294 5299 5307 5306 5300 5296 5292 5290 5293 5292 5294 5297 5301 5305 5308 5314 5318 5323 5329 5336 5343 5351 5360 5369 5377 5385 5393 5401 5409 5415 5421 5427 5432 5436 5440 5444 5448 5451 5454 5457 5459 5462 5464
5285 5288 5295 5298 5299 5299 5292 5285 5281 5283 5288 5285 5287 5291 5296 5300 5311 5318 5317 5318 5323 5331 5340 5348 5357 5366 5374 5381 5389 5396 5403 5409 5414 5418 5423 5427 5431 5435 5438 5442 5445 5448 5450 5452
5278 5278 5285 5286 5289 5289 5285 5277 5277 5279 5286 5279 5278 5281 5286 5291 5302 5308 5307 5309 5316 5322 5330 5338 5347 5355 5363 5369 5376 5383 5389 5395 5400 5405 5409 5413 5418 5422 5426 5429 5433 5436 5438 5441
5271 5272 5271 5275 5276 5281 5267 5266 5274 5276 5274 5268 5269 5272 5275 5278 5282 5289 5294 5300 5307 5313 5320 5328 5336 5344 5351 5357 5364 5370 5376 5381 5386 5391 5396 5401 5405 5410 5414 5417 5420 5424 5427 5429
5262 5267 5262 5266 5268 5268 5255 5260 5261 5259 5257 5258 5261 5263 5266 5270 5275 5279 5284 5290 5297 5304 5311 5317 5325 5332 5338 5344 5351 5357 5362 5366 5372 5378 5384 5389 5393 5397 5401 5405 5408 5411 5415 5418
5247 5248 5254 5254 5257 5249 5245 5245 5245 5245 5247 5249 5252 5254 5257 5260 5265 5270 5274 5280 5285 5292 5299 5306 5313 5319 5325 5331 5337 5343 5348 5354 5360 5366 5371 5376 5380 5385 5389 5393 5396 5399 5402 5405
5240 5232 5237 5240 5245 5241 5239 5238 5237 5237 5237 5239 5242 5244 5248 5251 5255 5259 5264 5269 5274 5280 5286 5293 5300 5307 5312 5318 5324 5330 5336 5342 5348 5354 5359 5364 5368 5372 5377 5380 5383 5387 5389 5392
5231 5229 5231 5234 5235 5234 5234 5232 5230 5230 5231 5232 5234 5236 5240 5244 5247 5249 5254 5258 5263 5268 5273 5280 5286 5293 5298 5305 5311 5317 5323 5330 5337 5342 5346 5351 5356 5361 5365 5368 5370 5373 5376 5379
5219 5218 5224 5231 5225 5224 5225 5223 5222 5223 5224 5225 5227 5230 5233 5235 5237 5240 5244 5247 5252 5256 5262 5268 5274 5280 5286 5292 5298 5304 5311 5318 5324 5330 5334 5339 5343 5347 5351 5355 5357 5359 5362 5365